• In Hungary
  • List of Countries
  • For 7 days
  • Water Temperature
  • Satellite Maps
  • Weather Map
  • News
  • Weather Widgets
  • user-avatar
    Login

    Hourly Weather Niefang

    Today, 27 May, Sunday

    Time Temperature Precipitation Wind Pressure Humidity
    00:00 +20°C° 0 mm 0 mps 704 mmHg 98%
    01:00 +20°C° 0 mm 0 mps 704 mmHg 98%
    02:00 +20°C° 0 mm 0 mps 704 mmHg 98%
    03:00 +20°C° 0 mm 0 mps 704 mmHg 98%
    04:00 +19°C° 0 mm 0 mps 704 mmHg 99%
    05:00 +20°C° 0 mm 0 mps 704 mmHg 98%
    06:00 +20°C° 0 mm 0 mps 704 mmHg 97%
    07:00 +20°C° 0 mm 0 mps 705 mmHg 96%
    08:00 +22°C° 0 mm 0 mps 705 mmHg 91%
    09:00 +23°C° 0 mm 0 mps 705 mmHg 86%
    10:00 +24°C° 0 mm 0 mps 706 mmHg 81%
    11:00 +26°C° 0.1 mm 0 mps 706 mmHg 72%
    12:00 +28°C° 0.1 mm 0 mps 706 mmHg 63%
    13:00 +31°C° 0 mm 0 mps 706 mmHg 55%
    14:00 +29°C° 0.5 mm 0 mps 705 mmHg 61%
    15:00 +30°C° 0.5 mm 1 mps 704 mmHg 67%
    16:00 +29°C° 0.5 mm 1 mps 704 mmHg 74%
    17:00 +27°C° 0.5 mm 1 mps 704 mmHg 81%
    18:00 +25°C° 0.5 mm 1 mps 704 mmHg 88%
    19:00 +24°C° 0.5 mm 1 mps 704 mmHg 95%
    20:00 +23°C° 0 mm 1 mps 704 mmHg 96%
    21:00 +23°C° 0 mm 1 mps 705 mmHg 97%
    22:00 +23°C° 0 mm 1 mps 705 mmHg 98%
    23:00 +23°C° 0 mm 1 mps 705 mmHg 98%

    Tomorrow, 28 May, Monday

    Time Temperature Precipitation Wind Pressure Humidity
    00:00 +23°C° 0 mm 1 mps 705 mmHg 98%
    01:00 +23°C° 0 mm 1 mps 705 mmHg 98%
    02:00 +23°C° 0 mm 1 mps 705 mmHg 98%
    03:00 +22°C° 0 mm 1 mps 705 mmHg 98%
    04:00 +22°C° 0 mm 1 mps 705 mmHg 98%
    05:00 +20°C° 0 mm 0 mps 705 mmHg 98%
    06:00 +21°C° 0 mm 0 mps 705 mmHg 97%
    07:00 +21°C° 0 mm 0 mps 705 mmHg 97%
    08:00 +23°C° 0 mm 0 mps 706 mmHg 88%
    09:00 +27°C° 0 mm 1 mps 706 mmHg 79%
    10:00 +29°C° 0 mm 1 mps 707 mmHg 69%
    11:00 +29°C° 0.1 mm 1 mps 707 mmHg 65%
    12:00 +30°C° 0.1 mm 1 mps 706 mmHg 61%
    13:00 +31°C° 0.1 mm 1 mps 706 mmHg 57%
    14:00 +30°C° 1.2 mm 1 mps 705 mmHg 67%
    15:00 +29°C° 1.2 mm 1 mps 704 mmHg 76%
    16:00 +27°C° 1.2 mm 1 mps 704 mmHg 86%
    17:00 +26°C° 0.6 mm 1 mps 704 mmHg 89%
    18:00 +25°C° 0.6 mm 1 mps 704 mmHg 92%
    19:00 +24°C° 0.6 mm 1 mps 704 mmHg 95%
    20:00 +24°C° 0.7 mm 1 mps 705 mmHg 95%
    21:00 +23°C° 0.7 mm 1 mps 705 mmHg 96%
    22:00 +23°C° 0.7 mm 1 mps 706 mmHg 96%
    23:00 +23°C° 0.1 mm 1 mps 705 mmHg 97%

    Day after tomorrow, 29 May, Tuesday

    Time Temperature Precipitation Wind Pressure Humidity
    00:00 +23°C° 0.1 mm 1 mps 705 mmHg 97%
    01:00 +23°C° 0.1 mm 1 mps 705 mmHg 98%
    02:00 +23°C° 0 mm 1 mps 705 mmHg 98%
    03:00 +23°C° 0 mm 1 mps 705 mmHg 98%
    04:00 +23°C° 0 mm 1 mps 704 mmHg 98%
    05:00 +23°C° 0.3 mm 1 mps 705 mmHg 97%
    06:00 +23°C° 0.3 mm 1 mps 705 mmHg 97%
    07:00 +23°C° 0.3 mm 1 mps 705 mmHg 97%
    08:00 +24°C° 0.2 mm 1 mps 706 mmHg 94%
    09:00 +24°C° 0.2 mm 1 mps 706 mmHg 91%
    10:00 +25°C° 0.2 mm 1 mps 707 mmHg 88%
    11:00 +26°C° 0.1 mm 1 mps 706 mmHg 80%
    12:00 +27°C° 0.1 mm 1 mps 706 mmHg 73%
    13:00 +29°C° 0.1 mm 1 mps 706 mmHg 66%
    14:00 +28°C° 0.8 mm 1 mps 705 mmHg 72%
    15:00 +28°C° 0.8 mm 1 mps 704 mmHg 77%
    16:00 +27°C° 0.8 mm 1 mps 703 mmHg 83%
    17:00 +26°C° 0.8 mm 1 mps 703 mmHg 87%
    18:00 +25°C° 0.8 mm 1 mps 704 mmHg 91%
    19:00 +21°C° 0.8 mm 0 mps 704 mmHg 95%
    20:00 +21°C° 0.1 mm 0 mps 704 mmHg 96%
    21:00 +21°C° 0.1 mm 0 mps 705 mmHg 97%
    22:00 +21°C° 0.1 mm 0 mps 706 mmHg 97%
    23:00 +21°C° 0.3 mm 0 mps 705 mmHg 97%

    30 May, Wednesday

    Time Temperature Precipitation Wind Pressure Humidity
    00:00 +20°C° 0.3 mm 0 mps 705 mmHg 98%
    01:00 +20°C° 0.3 mm 0 mps 704 mmHg 98%
    02:00 +20°C° 0 mm 0 mps 704 mmHg 98%
    03:00 +22°C° 0 mm 1 mps 704 mmHg 98%
    04:00 +22°C° 0 mm 1 mps 703 mmHg 98%
    05:00 +20°C° 0 mm 0 mps 704 mmHg 98%
    06:00 +20°C° 0 mm 0 mps 704 mmHg 97%
    07:00 +20°C° 0 mm 0 mps 705 mmHg 97%
    08:00 +22°C° 0 mm 0 mps 705 mmHg 90%
    09:00 +23°C° 0 mm 0 mps 706 mmHg 84%
    10:00 +25°C° 0 mm 0 mps 706 mmHg 77%
    11:00 +26°C° 0.6 mm 0 mps 706 mmHg 75%
    12:00 +27°C° 0.6 mm 0 mps 706 mmHg 72%
    13:00 +30°C° 0.6 mm 1 mps 705 mmHg 69%
    14:00 +28°C° 2.5 mm 1 mps 705 mmHg 75%
    15:00 +27°C° 2.5 mm 1 mps 704 mmHg 81%
    16:00 +26°C° 2.5 mm 1 mps 703 mmHg 88%
    17:00 +25°C° 0.6 mm 1 mps 704 mmHg 90%
    18:00 +24°C° 0.6 mm 1 mps 704 mmHg 93%
    19:00 +23°C° 0.6 mm 1 mps 704 mmHg 95%
    20:00 +23°C° 0 mm 1 mps 704 mmHg 96%
    21:00 +21°C° 0 mm 0 mps 705 mmHg 96%
    22:00 +20°C° 0 mm 0 mps 705 mmHg 97%
    23:00 +22°C° 0 mm 1 mps 705 mmHg 97%

    31 May, Thursday

    Time Temperature Precipitation Wind Pressure Humidity
    00:00 +22°C° 0 mm 1 mps 704 mmHg 98%
    01:00 +22°C° 0 mm 1 mps 704 mmHg 98%
    02:00 +22°C° 0 mm 1 mps 704 mmHg 98%
    03:00 +22°C° 0 mm 1 mps 704 mmHg 98%
    04:00 +22°C° 0 mm 1 mps 703 mmHg 99%
    05:00 +20°C° 0 mm 0 mps 704 mmHg 98%
    06:00 +20°C° 0 mm 0 mps 704 mmHg 97%
    07:00 +20°C° 0 mm 0 mps 705 mmHg 96%
    08:00 +22°C° 0 mm 0 mps 705 mmHg 90%
    09:00 +23°C° 0 mm 0 mps 706 mmHg 84%
    10:00 +25°C° 0 mm 0 mps 706 mmHg 78%
    11:00 +26°C° 0.1 mm 0 mps 706 mmHg 73%
    12:00 +27°C° 0.1 mm 0 mps 706 mmHg 67%
    13:00 +28°C° 0.1 mm 0 mps 705 mmHg 62%
    14:00 +28°C° 0.9 mm 0 mps 704 mmHg 66%
    15:00 +27°C° 0.9 mm 0 mps 704 mmHg 70%
    16:00 +27°C° 0.9 mm 0 mps 703 mmHg 74%
    17:00 +27°C° 0.7 mm 1 mps 704 mmHg 80%
    18:00 +26°C° 0.7 mm 1 mps 704 mmHg 86%
    19:00 +24°C° 0.7 mm 1 mps 704 mmHg 92%
    20:00 +24°C° 0.2 mm 1 mps 704 mmHg 94%
    21:00 +23°C° 0.2 mm 1 mps 705 mmHg 96%
    22:00 +23°C° 0.2 mm 1 mps 705 mmHg 98%
    23:00 +23°C° 0.7 mm 1 mps 705 mmHg 98%

    1 June, Friday

    Time Temperature Precipitation Wind Pressure Humidity
    00:00 +21°C° 0.7 mm 0 mps 705 mmHg 98%
    01:00 +21°C° 0.7 mm 0 mps 704 mmHg 98%
    02:00 +23°C° 0 mm 1 mps 704 mmHg 98%
    03:00 +23°C° 0 mm 1 mps 704 mmHg 98%
    04:00 +23°C° 0 mm 1 mps 703 mmHg 98%
    05:00 +21°C° 0 mm 0 mps 704 mmHg 98%
    06:00 +21°C° 0 mm 0 mps 704 mmHg 98%
    07:00 +21°C° 0 mm 0 mps 705 mmHg 97%
    08:00 +22°C° 0 mm 0 mps 705 mmHg 93%
    09:00 +23°C° 0 mm 0 mps 706 mmHg 89%
    10:00 +24°C° 0 mm 0 mps 706 mmHg 85%
    11:00 +27°C° 0 mm 1 mps 706 mmHg 80%
    12:00 +28°C° 0 mm 1 mps 705 mmHg 75%
    13:00 +28°C° 0 mm 1 mps 704 mmHg 70%
    14:00 +28°C° 0.5 mm 1 mps 704 mmHg 72%
    15:00 +28°C° 0.5 mm 1 mps 704 mmHg 74%
    16:00 +28°C° 0.5 mm 1 mps 703 mmHg 76%
    17:00 +27°C° 1.2 mm 1 mps 704 mmHg 82%
    18:00 +25°C° 1.2 mm 1 mps 704 mmHg 88%
    19:00 +24°C° 1.2 mm 1 mps 704 mmHg 95%
    20:00 +24°C° 0.8 mm 1 mps 705 mmHg 95%
    21:00 +23°C° 0.8 mm 1 mps 705 mmHg 96%
    22:00 +23°C° 0.8 mm 1 mps 705 mmHg 97%
    23:00 +23°C° 0 mm 1 mps 705 mmHg 97%
    Show more